Location: *
(44.3925°N, 5.4708°E)
Time: 06:02:26
(UTC+00:00)

In-Cosmos 22 - Pass Details

Date: 18 September 2019
Orbit: 785 x 876 km, 81.2° (Epoch: 19 October)

Event Time Altitude Azimuth Distance (km) Brightness Sun altitude
Rises 19:41:33 0° 347° (NNW) 3,303 7.8 -21.1°
Reaches altitude 10° 19:43:55 10° 346° (NNW) 2,377 7.0 -21.5°
Maximum altitude 19:49:15 74° 262° (W) 843 4.2 -22.4°
Enters shadow 19:52:30 25° 182° (S) 1,600 5.4 -22.9°
